TimeCST,TemperatureF,Dew PointF,Humidity,Sea Level PressureIn,VisibilityMPH,Wind Direction,Wind SpeedMPH,Gust SpeedMPH,PrecipitationIn,Events,Conditions,WindDirDegrees,DateUTC
12:15 AM,28.4,15.8,59,29.91,10.0,West,10.4,17.3,N/A,,Overcast,270,2013-01-31 06:15:00
12:35 AM,28.4,17.6,64,29.91,10.0,West,9.2,16.1,N/A,,Overcast,260,2013-01-31 06:35:00
12:55 AM,28.4,17.6,64,29.92,10.0,West,9.2,20.7,N/A,,Overcast,270,2013-01-31 06:55:00
1:15 AM,28.4,17.6,64,29.93,10.0,West,12.7,20.7,N/A,,Overcast,270,2013-01-31 07:15:00
1:35 AM,28.4,17.6,64,29.93,10.0,West,6.9,-,N/A,,Overcast,270,2013-01-31 07:35:00
1:55 AM,28.4,17.6,64,29.94,10.0,West,5.8,-,N/A,,Overcast,270,2013-01-31 07:55:00
2:15 AM,28.4,15.8,59,29.94,10.0,WNW,9.2,17.3,N/A,,Overcast,290,2013-01-31 08:15:00
2:35 AM,28.4,15.8,59,29.95,10.0,West,8.1,17.3,N/A,,Overcast,280,2013-01-31 08:35:00
3:15 AM,28.4,15.8,59,29.95,10.0,West,10.4,19.6,N/A,,Overcast,280,2013-01-31 09:15:00
3:35 AM,28.4,15.8,59,29.95,10.0,West,8.1,17.3,N/A,,Overcast,280,2013-01-31 09:35:00
3:55 AM,28.4,15.8,59,29.95,10.0,West,10.4,19.6,N/A,,Overcast,280,2013-01-31 09:55:00
4:15 AM,28.4,14.0,55,29.95,10.0,West,11.5,18.4,N/A,,Overcast,270,2013-01-31 10:15:00
4:35 AM,28.4,15.8,59,29.95,10.0,West,5.8,-,N/A,,Overcast,270,2013-01-31 10:35:00
4:55 AM,28.4,15.8,59,29.96,10.0,West,5.8,16.1,N/A,,Overcast,260,2013-01-31 10:55:00
5:15 AM,28.4,15.8,59,29.96,10.0,West,10.4,-,N/A,,Overcast,260,2013-01-31 11:15:00
5:35 AM,28.4,15.8,59,29.96,10.0,West,8.1,-,N/A,,Overcast,260,2013-01-31 11:35:00
6:15 AM,28.4,14.0,55,29.97,10.0,West,10.4,16.1,N/A,,Overcast,260,2013-01-31 12:15:00
6:55 AM,28.4,15.8,59,29.98,10.0,WSW,13.8,17.3,N/A,,Mostly Cloudy,250,2013-01-31 12:55:00
7:15 AM,26.6,15.8,64,29.99,10.0,West,9.2,17.3,N/A,,Partly Cloudy,260,2013-01-31 13:15:00
7:35 AM,28.4,15.8,59,30.01,10.0,WSW,6.9,-,N/A,,Scattered Clouds,250,2013-01-31 13:35:00
7:55 AM,28.4,17.6,64,30.01,10.0,WSW,9.2,-,N/A,,Mostly Cloudy,250,2013-01-31 13:55:00
8:15 AM,28.4,17.6,64,30.02,10.0,WSW,8.1,-,N/A,,Overcast,240,2013-01-31 14:15:00
8:35 AM,28.4,17.6,64,30.03,10.0,WSW,9.2,-,N/A,,Overcast,250,2013-01-31 14:35:00
8:55 AM,28.4,17.6,64,30.03,10.0,WSW,12.7,17.3,N/A,,Overcast,250,2013-01-31 14:55:00
9:15 AM,30.2,17.6,60,30.04,10.0,WSW,8.1,17.3,N/A,,Overcast,250,2013-01-31 15:15:00
9:35 AM,30.2,17.6,60,30.05,10.0,WSW,13.8,23.0,N/A,,Overcast,250,2013-01-31 15:35:00
9:55 AM,30.2,17.6,60,30.05,10.0,SW,18.4,23.0,N/A,,Overcast,230,2013-01-31 15:55:00
10:15 AM,30.2,17.6,60,30.06,10.0,West,11.5,20.7,N/A,,Overcast,270,2013-01-31 16:15:00
10:35 AM,30.2,19.4,64,30.06,10.0,WSW,15.0,21.9,N/A,,Overcast,240,2013-01-31 16:35:00
10:55 AM,30.2,19.4,64,30.07,10.0,WSW,13.8,20.7,N/A,,Overcast,250,2013-01-31 16:55:00
11:15 AM,30.2,19.4,64,30.06,10.0,West,10.4,18.4,N/A,,Mostly Cloudy,260,2013-01-31 17:15:00
11:55 AM,33.8,17.6,52,30.04,10.0,WSW,13.8,20.7,N/A,,Mostly Cloudy,250,2013-01-31 17:55:00
12:15 PM,33.8,17.6,52,30.03,10.0,WSW,18.4,23.0,N/A,,Overcast,250,2013-01-31 18:15:00
12:35 PM,33.8,19.4,56,30.02,10.0,WSW,12.7,21.9,N/A,,Overcast,250,2013-01-31 18:35:00
12:55 PM,33.8,19.4,56,30.02,10.0,WSW,17.3,21.9,N/A,,Overcast,240,2013-01-31 18:55:00
1:15 PM,33.8,19.4,56,30.02,10.0,WSW,15.0,25.3,N/A,,Overcast,250,2013-01-31 19:15:00
1:35 PM,33.8,21.2,60,30.01,10.0,WSW,10.4,20.7,N/A,,Overcast,250,2013-01-31 19:35:00
2:15 PM,33.8,19.4,56,30.01,10.0,West,13.8,18.4,N/A,,Overcast,260,2013-01-31 20:15:00
2:35 PM,33.8,21.2,60,30.00,10.0,WSW,12.7,19.6,N/A,,Overcast,250,2013-01-31 20:35:00
2:55 PM,33.8,21.2,60,30.01,10.0,West,13.8,21.9,N/A,,Overcast,260,2013-01-31 20:55:00
3:15 PM,33.8,23.0,65,30.01,5.0,WSW,13.8,21.9,N/A,,Overcast,250,2013-01-31 21:15:00
3:55 PM,32.0,24.8,75,30.03,3.0,West,11.5,20.7,N/A,,Overcast,260,2013-01-31 21:55:00
4:15 PM,30.2,26.6,86,30.03,0.8,West,6.9,-,N/A,,Overcast,260,2013-01-31 22:15:00
4:35 PM,30.2,26.6,86,30.04,1.2,West,9.2,17.3,N/A,,Overcast,270,2013-01-31 22:35:00
4:55 PM,30.2,26.6,86,30.05,0.2,NW,4.6,21.9,N/A,,Overcast,310,2013-01-31 22:55:00
5:15 PM,26.6,21.2,80,30.07,0.8,NW,6.9,-,N/A,,Overcast,310,2013-01-31 23:15:00
5:35 PM,26.6,15.8,64,30.08,10.0,WNW,10.4,17.3,N/A,,Mostly Cloudy,290,2013-01-31 23:35:00
5:55 PM,26.6,14.0,59,30.10,10.0,WNW,9.2,17.3,N/A,,Overcast,300,2013-01-31 23:55:00
6:15 PM,24.8,17.6,74,30.13,5.0,NNW,5.8,19.6,N/A,,Overcast,330,2013-02-01 00:15:00
6:35 PM,23.0,14.0,68,30.15,10.0,WNW,6.9,-,N/A,,Overcast,300,2013-02-01 00:35:00
6:55 PM,21.2,10.4,63,30.16,10.0,WNW,6.9,17.3,N/A,,Overcast,290,2013-02-01 00:55:00
7:15 PM,21.2,6.8,54,30.18,10.0,WNW,10.4,20.7,N/A,,Partly Cloudy,300,2013-02-01 01:15:00
8:15 PM,19.4,3.2,49,30.21,10.0,WNW,10.4,18.4,N/A,,Clear,290,2013-02-01 02:15:00
8:35 PM,19.4,6.8,58,30.23,10.0,WNW,6.9,-,N/A,,Partly Cloudy,290,2013-02-01 02:35:00
8:55 PM,19.4,5.0,54,30.24,10.0,West,10.4,18.4,N/A,,Scattered Clouds,280,2013-02-01 02:55:00
9:15 PM,19.4,6.8,58,30.25,9.0,NW,3.5,-,N/A,,Mostly Cloudy,310,2013-02-01 03:15:00
9:35 PM,19.4,5.0,54,30.26,10.0,WNW,6.9,-,N/A,,Overcast,290,2013-02-01 03:35:00
9:55 PM,17.6,5.0,58,30.27,10.0,WNW,9.2,-,N/A,,Overcast,290,2013-02-01 03:55:00
10:15 PM,17.6,8.6,68,30.29,5.0,West,6.9,-,N/A,,Overcast,280,2013-02-01 04:15:00
10:35 PM,17.6,8.6,68,30.30,3.0,West,6.9,19.6,N/A,,Overcast,280,2013-02-01 04:35:00
10:55 PM,17.6,8.6,68,30.31,3.0,WNW,5.8,-,N/A,,Overcast,300,2013-02-01 04:55:00
11:15 PM,15.8,8.6,73,30.32,3.0,WNW,4.6,-,N/A,,Overcast,290,2013-02-01 05:15:00
11:35 PM,14.0,3.2,62,30.33,10.0,WNW,6.9,23.0,N/A,,Mostly Cloudy,300,2013-02-01 05:35:00